Weather History for KVTN - May, 2012

Change the Weather History Date:

Sunday, May 13, 2012

  Actual Average Record
Temperature  
Mean Temperature 53 °F 57 °F  
Max Temperature 74 °F 70 °F 97 °F (1941)
Min Temperature 32 °F 43 °F 25 °F (1966)
Degree Days  
Heating Degree Days 12 9  
Month to date heating degree days 111 143  
Since 1 July heating degree days 5760 6826  
Cooling Degree Days 0 1  
Month to date cooling degree days 4 10  
Year to date cooling degree days 25 14  
Growing Degree Days 3 (Base 50)    
Moisture  
Dew Point 35 °F    
Average Humidity 60    
Maximum Humidity 100    
Minimum Humidity 20    
Precipitation  
Precipitation 0.00 in 0.11 in 2.14 in (1982)
Month to date precipitation 0.03 1.23  
Year to date precipitation 5.79 5.26  
Snow  
Snow 0.00 in 0.00 in T in (1995)
Month to date snowfall 0.0 0.1  
Since 1 July snowfall 15.9 33.3  
Snow Depth 0.00 in    
Sea Level Pressure  
Sea Level Pressure 30.26 in    
Wind  
Wind Speed 4 mph (WSW)    
Max Wind Speed 12 mph    
Max Gust Speed 17 mph    
Visibility 10 miles    
Events      
T = Trace of Precipitation, MM = Missing Value Source: NWS Daily Summary

Daily Weather History Graph

Daily Weather History Graph

Search for Another Location

Airport or City:

Trip Planner

Search our weather history database for the weather conditions in past years. The results will help you decide how hot, cold, wet, or windy it might be!

Date:

Astronomy

May. 13, 2012 Rise Set
Actual Time 6:20 AM CDT 8:56 PM CDT
Civil Twilight 5:48 AM CDT 9:29 PM CDT
Nautical Twilight 5:08 AM CDT 10:09 PM CDT
Astronomical Twilight 4:22 AM CDT 10:56 PM CDT
Moon 2:37 AM CDT (5/13) 2:10 PM CDT (5/13)
Length of Visible Light 15h 40m
Length of Day
14h 35m
Last Quarter, 42% of the Moon is Illuminated
May 13
Last Quarter
May 20
New
May 28
First Quarter
Jun 4
Full
Jun 11
Last Quarter

Hourly Weather History & Observations

Time (CDT) Temp. Windchill Dew Point Humidity Pressure Visibility Wind Dir Wind Speed Gust Speed Precip Events Conditions
12:52 AM 43.0 °F - 37.0 °F 80% 30.35 in 10.0 mi Calm Calm - N/A   Clear
1:52 AM 42.1 °F - 37.9 °F 85% 30.35 in 10.0 mi Calm Calm - N/A   Clear
2:52 AM 39.9 °F - 37.0 °F 89% 30.34 in 10.0 mi Calm Calm - N/A   Clear
3:52 AM 36.0 °F 33.3 °F 35.1 °F 97% 30.34 in 10.0 mi West 3.5 mph - N/A   Clear
4:52 AM 33.1 °F 28.7 °F 32.0 °F 96% 30.34 in 10.0 mi WSW 4.6 mph - N/A   Clear
5:52 AM 33.1 °F 27.7 °F 32.0 °F 96% 30.34 in 10.0 mi SW 5.8 mph - N/A   Clear
6:52 AM 34.0 °F 31.0 °F 33.1 °F 96% 30.34 in 10.0 mi WSW 3.5 mph - N/A   Clear
7:52 AM 42.1 °F - 39.0 °F 89% 30.33 in 10.0 mi Calm Calm - N/A   Clear
8:52 AM 52.0 °F - 42.1 °F 69% 30.32 in 10.0 mi WSW 10.4 mph - N/A   Clear
10:52 AM 61.0 °F - 39.9 °F 46% 30.29 in 10.0 mi SW 6.9 mph - N/A   Clear
11:52 AM 64.4 °F - 37.4 °F 37% 30.28 in 8.0 mi West 6.9 mph - N/A   Clear
12:52 PM 68.0 °F - 34.0 °F 28% 30.27 in 10.0 mi West 8.1 mph - N/A   Clear
1:52 PM 69.1 °F - 32.0 °F 25% 30.25 in 10.0 mi Variable 5.8 mph - N/A   Clear
2:52 PM 70.0 °F - 33.1 °F 26% 30.23 in 10.0 mi SW 5.8 mph - N/A   Clear
3:52 PM 73.0 °F - 34.0 °F 24% 30.21 in 10.0 mi NE 5.8 mph - N/A   Clear
4:52 PM 73.0 °F - 30.9 °F 21% 30.19 in 10.0 mi SSW 6.9 mph - N/A   Clear
5:52 PM 73.9 °F - 30.0 °F 20% 30.17 in 10.0 mi WNW 3.5 mph - N/A   Clear
6:52 PM 73.9 °F - 32.0 °F 21% 30.16 in 10.0 mi NW 3.5 mph - N/A   Clear
7:52 PM 70.0 °F - 33.1 °F 26% 30.15 in 10.0 mi SSE 3.5 mph - N/A   Clear
8:52 PM 62.1 °F - 39.0 °F 43% 30.15 in 10.0 mi SSE 6.9 mph - N/A   Clear
9:52 PM 54.0 °F - 35.1 °F 49% 30.16 in 10.0 mi South 4.6 mph - N/A   Clear
10:52 PM 54.0 °F - 35.1 °F 49% 30.16 in 10.0 mi Calm Calm - N/A   Clear
11:52 PM 51.1 °F - 35.1 °F 54% 30.15 in 10.0 mi WSW 3.5 mph - N/A   Clear